Location: Poughquag
(41.6090°N, 73.6820°W)
Time: 08:40:29
(UTC-05:00)

Altair - Pass Details

Date: 06 December 2023
Orbit: 1501 x 1682 km, 47.2° (Epoch: 02 March)

Event Time Altitude Azimuth Distance (km) Brightness Sun altitude
Rises 09:38:00 0° 263° (W) 4,813 9.9 19.4°
Reaches altitude 10° 09:41:12 10° 266° (W) 3,803 9.4 19.7°
Maximum altitude 09:50:47 67° 349° (NNW) 1,664 7.8 20.6°
Drops below altitude 10° 10:00:02 10° 71° (ENE) 3,680 9.7 21.4°
Sets 10:03:05 0° 75° (ENE) 4,649 10.2 21.6°
